Regional Weather Roundup
Issued by NWS Sioux Falls, SD

Home | Current Version | Previous Version | Graphics & Text | Print | Product List | Glossary On
Versions: 1 2 3 4 5 6 7 8 9 10 11 12 13 14 15 16 17 18 19 20 21 22 23 24 25 26 27 28 29 30 31 32 33 34 35 36 37 38 39 40 41 42 43 44 45 46 47 48 49 50
000
ASUS43 KFSD 011610
RWRFSD

WEATHER ROUNDUP FOR SE SOUTH DAKOTA/SW MINNESOTA/NW IOWA
NATIONAL WEATHER SERVICE SIOUX FALLS SD
1100 AM CDT FRI AUG 01 2014

NOTE: "FAIR" INDICATES FEW OR NO CLOUDS BELOW 12,000 FEET WITH NO
SIGNIFICANT WEATHER AND OR OBSTRUCTIONS TO VISIBILITY.


SDZ038>040-050-052>070-011700-
SOUTHEAST SOUTH DAKOTA

CITY           SKY/WX    TMP DP  RH WIND       PRES   REMARKS
CHAMBERLAIN    SUNNY     78  62  58 SE7       30.10S
HURON          SUNNY     76  62  62 VRB3      30.10R
MADISON        FAIR      73  59  60 SE3       30.13R
MITCHELL       SUNNY     76  63  64 SE6       30.11R
SIOUX FALLS    MOSUNNY   76  62  62 CALM      30.12R
WINNER         FAIR      83  55  38 SE9       30.11R
YANKTON        SUNNY     70  64  83 CALM      30.12R
$$

MNZ071-072-080-081-089-090-097-098-011700-
SOUTHWEST MINNESOTA

CITY           SKY/WX    TMP DP  RH WIND       PRES   REMARKS
FAIRMONT       SUNNY     79  59  50 CALM      30.10S
JACKSON        SUNNY     75  57  53 N3        30.12R
LUVERNE        SUNNY     73  59  60 CALM      30.12S
MARSHALL       SUNNY     77  57  50 N5        30.09S
MONTEVIDEO     SUNNY     79  66  65 N3        30.10R
PIPESTONE      SUNNY     73  59  60 CALM      30.12R
REDWOOD FALLS  SUNNY     77  60  55 VRB5      30.09R
TRACY          SUNNY     77  58  51 CALM      30.11S
WINDOM         SUNNY     75  57  53 CALM      30.11S
WORTHINGTON    SUNNY     73  61  64 NW5       30.13S
$$

IAZ001>003-012>014-020>022-031-032-NEZ013-014-SDZ071-011700-
NORTHWEST IOWA

CITY           SKY/WX    TMP DP  RH WIND       PRES   REMARKS
CHEROKEE       SUNNY     75  64  68 CALM      30.11S
DENISON        MOSUNNY   72  64  78 CALM      30.10R
ESTHERVILLE    SUNNY     74  63  68 NW6       30.11R
LE MARS        SUNNY     75  63  64 CALM      30.11S
ORANGE CITY    SUNNY     75  61  60 W3        30.12R
SHELDON        SUNNY     73  64  73 VRB3      30.11S
SIOUX CITY     SUNNY     75  63  66 CALM      30.11S
SPENCER        SUNNY     76  62  62 NW7       30.11S
STORM LAKE     SUNNY     72  64  78 CALM      30.13R
$$

ABBREVIATIONS USED IN REMARKS
   TC - TEMPERATURE IN CELSIUS
  WCI - WIND CHILL INDEX
   HX - HEAT INDEX
  VSB - VISIBILITY




USA.gov is the U.S. government's official web portal to all federal, state and local government web resources and services.